Startpagina
METAR-TAF:

METAR-TAF

Vliegvelden :

Productieplatform

J6-a, Nederland

breedte: 53-49-27N, lengte: 2-56-43E, hoogte: 34 m

Actueel weer

Dit bericht is 30 minuten geleden gemaakt, om 23:25 UTC
Wind 6 kt uit het zuidwesten
Temperatuur 5°C
Vochtigheid 75%
Druk 1006 hPa
Zicht 10 km of meer

METAR: EHJA 232325Z AUTO 23006KT 9999 FEW016/// SCT037/// 05/01 Q1006 W///H///

Tijdstip: 00:55 (23:55 UTC)


TAF: ontbreekt

Waarnemingen en weersverwachtingen van meer dan 4000 vliegvelden (METAR en TAF).

De beschikbare stations zijn de gele en rode punten op de kaart.

Ga met uw muis naar het station om de naam te zien.

Klik dan om waarnemingen en weersverwachtingen te zien.

kaart wijzigen: klik op de groene knoppen met een zwart kruis om in te zoomen, op de groene knop met een streepje om uit te zoomen of op de groene pijlen voor aangrenzende kaarten.


METAR-TAF: